This demonstration page uses our WeatherBlox Daily Observations layout. Learn more.

Left ArrowRight Arrow

39.51506, -84.39828

Hourly Observations for October 2, 2015

Temp ( °F °C ) Dew Point ( °F °C ) Humidity (%) Winds ( mph kmh ) Pressure ( in mb ) Visibility ( mi km ) Precip ( " mm )
12:15 am 00:15 Cloudy 60 15.3 48 9.1 67 67 NNE 12 19 30.15 1021 10 16 N/A
12:35 am 00:35 Cloudy 60 15.3 49 9.3 68 68 NE 12 19 30.15 1021 10 16 N/A
12:55 am 00:55 Cloudy 60 15.3 49 9.5 69 69 NE 10 17 30.15 1021 10 16 N/A
1:15 am 01:15 Cloudy 60 15.3 49 9.5 69 69 NE 13 20 30.15 1021 10 16 N/A
1:35 am 01:35 Cloudy 60 15.3 49 9.5 69 69 NE 12 19 30.15 1021 10 16 N/A
1:55 am 01:55 Partly Cloudy 60 15.3 49 9.6 69 69 NE 12 19 30.12 1020 10 16 N/A
2:15 am 02:15 Clear 60 15.3 49 9.6 69 69 NE 10 17 30.12 1020 10 16 N/A
2:35 am 02:35 Clear 60 15.3 49 9.5 69 69 NE 13 20 30.12 1020 10 16 N/A
2:55 am 02:55 Clear 60 15.3 49 9.3 68 68 NE 15 24 30.12 1020 10 16 N/A
3:15 am 03:15 Clear 60 15.3 49 9.2 67 67 NE 14 22 30.12 1020 10 16 N/A
3:35 am 03:35 Clear 59 14.9 48 8.8 67 67 NE 15 24 30.12 1020 10 16 N/A
3:55 am 03:55 Clear 57 13.8 46 7.8 67 67 NE 13 20 30.12 1020 10 16 N/A
4:15 am 04:15 Partly Cloudy 57 13.8 46 8 68 68 NE 9 15 30.12 1020 10 16 N/A
4:35 am 04:35 Clear 57 13.8 47 8.1 69 69 NE 10 17 30.12 1020 10 16 N/A
4:55 am 04:55 Clear 57 13.8 47 8.1 69 69 NE 14 22 30.12 1020 10 16 N/A
5:15 am 05:15 Clear 57 13.8 47 8.1 69 69 NE 15 24 30.12 1020 10 16 N/A
5:35 am 05:35 Clear 55 12.6 45 7 69 69 NE 10 17 30.12 1020 10 16 N/A
5:55 am 05:55 Clear 55 12.5 44 6.8 68 68 NNE 14 22 30.12 1020 10 16 N/A
6:15 am 06:15 Partly Cloudy 55 12.5 45 7 69 69 NNE 13 20 30.12 1020 10 16 N/A
6:35 am 06:35 Partly Cloudy 55 12.5 45 7 69 69 NE 8 13 30.12 1020 10 16 N/A
6:55 am 06:55 Partly Cloudy 55 12.5 45 7 69 69 NNE 12 19 30.12 1020 10 16 N/A
7:15 am 07:15 Partly Cloudy 55 12.5 45 7.2 70 70 NNE 9 15 30.15 1021 10 16 N/A
7:35 am 07:35 Sunny 53 11.8 44 6.8 72 72 NNE 9 15 30.15 1021 10 16 N/A
7:55 am 07:55 Sunny 52 11 43 6.2 73 73 NE 10 17 30.15 1021 10 16 N/A
8:15 am 08:15 Sunny 54 12.3 45 7.1 71 71 NNE 13 20 30.15 1021 10 16 N/A
8:35 am 08:35 Sunny 54 12.4 45 7.2 71 71 NNE 9 15 30.15 1021 10 16 N/A
8:55 am 08:55 Sunny 55 12.5 45 7 69 69 NE 10 17 30.15 1021 10 16 N/A
9:15 am 09:15 Sunny 55 12.5 44 6.9 69 69 NNE 12 19 30.15 1021 10 16 N/A
9:35 am 09:35 Sunny 55 12.5 44 6.6 68 68 NNE 16 26 30.15 1021 10 16 N/A
9:55 am 09:55 Sunny 55 12.5 44 6.4 67 67 NNE 10 17 30.15 1021 10 16 N/A
10:15 am 10:15 Partly Cloudy 55 12.5 43 6 65 65 NE 14 22 30.15 1021 10 16 N/A
10:35 am 10:35 Partly Cloudy 55 12.5 42 5.7 64 64 NE 13 20 30.15 1021 10 16 N/A
10:55 am 10:55 Partly Cloudy 55 12.5 42 5.5 63 63 NNE 13 20 30.15 1021 10 16 N/A
11:15 am 11:15 Sunny 56 13.4 43 5.9 61 61 NE 17 28 30.15 1021 10 16 N/A
11:35 am 11:35 Sunny 57 13.8 42 5.8 59 59 NE 16 26 30.15 1021 10 16 N/A
11:55 am 11:55 Partly Cloudy 57 13.8 42 5.6 58 58 NE 13 20 30.15 1021 10 16 N/A
12:15 pm 12:15 Partly Cloudy 57 14 42 5.5 57 57 NE 18 30 30.12 1020 10 16 N/A
12:35 pm 12:35 Partly Cloudy 60 15.3 43 6.3 55 55 NE 17 28 30.12 1020 10 16 N/A
12:55 pm 12:55 Partly Cloudy 60 15.3 43 5.9 54 54 NE 17 28 30.12 1020 10 16 N/A
1:15 pm 13:15 Cloudy 60 15.4 42 5.4 52 52 NE 20 31 30.12 1020 10 16 N/A
1:35 pm 13:35 Cloudy 60 15.8 42 5.3 50 50 NE 18 30 30.12 1020 10 16 N/A
1:55 pm 13:55 Mostly Cloudy 61 16 41 4.8 48 48 NE 16 26 30.12 1020 10 16 N/A
2:15 pm 14:15 Cloudy 61 16 40 4.5 47 47 NE 16 26 30.12 1020 10 16 N/A
2:35 pm 14:35 Cloudy 61 16.1 40 4.4 46 46 NE 17 28 30.12 1020 10 16 N/A
2:55 pm 14:55 Cloudy 61 16 39 4.1 45 45 NE 20 31 30.09 1019 10 16 N/A
3:15 pm 15:15 Cloudy 61 16 39 4 45 45 ENE 16 26 30.09 1019 10 16 N/A
3:35 pm 15:35 Cloudy 61 16 40 4.2 46 46 NE 16 26 30.09 1019 10 16 N/A
3:55 pm 15:55 Cloudy 61 16 40 4.4 46 46 ENE 23 37 30.12 1020 10 16 N/A
4:15 pm 16:15 Cloudy 60 15.6 39 4 46 46 NE 15 24 30.09 1019 10 16 N/A
4:35 pm 16:35 Cloudy 60 15.3 39 3.7 46 46 NE 16 26 30.12 1020 10 16 N/A
4:55 pm 16:55 Cloudy with Light Rain 57 13.8 44 6.6 62 62 NE 12 19 30.12 1020 10 16 N/A
5:15 pm 17:15 Cloudy 57 13.8 39 3.8 51 51 NE 15 24 30.09 1019 10 16 N/A
5:35 pm 17:35 Cloudy 58 14.2 36 2 44 44 NE 13 20 30.12 1020 10 16 N/A
5:55 pm 17:55 Cloudy with Light Rain 57 13.8 39 3.7 51 51 NE 15 24 30.12 1020 10 16 N/A
6:15 pm 18:15 Cloudy with Light Rain 57 13.8 39 4 52 52 NE 15 24 30.12 1020 10 16 N/A
6:35 pm 18:35 Cloudy with Drizzle 56 13.6 39 3.7 51 51 NE 14 22 30.12 1020 10 16 N/A
6:55 pm 18:55 Cloudy 57 13.8 39 3.9 52 52 NE 15 24 30.12 1020 10 16 N/A
7:15 pm 19:15 Cloudy with Light Rain 55 12.7 39 3.7 55 55 NE 16 26 30.12 1020 10 16 N/A
7:35 pm 19:35 Cloudy with Light Rain 55 12.5 43 6.3 66 66 NE 7 11 30.12 1020 10 16 N/A
7:55 pm 19:55 Cloudy with Rain 55 12.5 46 7.6 72 72 NE 8 13 30.12 1020 10 16 N/A
8:15 pm 20:15 Cloudy with Rain 55 12.5 47 8.6 77 77 NNE 8 13 30.12 1020 10 16 N/A
8:35 pm 20:35 Cloudy with Light Snow 55 12.5 48 9 79 79 NE 13 20 30.12 1020 10 16 N/A
8:55 pm 20:55 Cloudy with Light Rain 55 12.5 48 9 79 79 NE 13 20 30.12 1020 10 16 N/A
9:15 pm 21:15 Cloudy with Drizzle 55 12.5 48 9 79 79 NE 13 20 30.12 1020 10 16 N/A
9:35 pm 21:35 Cloudy with Light Rain 55 12.5 48 9 79 79 NE 13 20 30.12 1020 10 16 N/A
9:55 pm 21:55 Cloudy with Rain 55 12.5 49 9.2 80 80 NE 13 20 30.12 1020 10 16 N/A
10:15 pm 22:15 Cloudy with Light Snow 55 12.5 49 9.5 82 82 NE 13 20 30.12 1020 7 11 N/A
10:35 pm 22:35 Cloudy with Drizzle 54 12.2 49 9.3 83 83 NE 13 20 30.12 1020 10 16 N/A

Powered by AerisWeather